Edinburg, TX

12:14 PM CDT on April 28, 2017 (GMT -0500)
Edinburg

Weather History for KEBG - December, 2011

Change the Weather History Date:

Monday, December 26, 2011

  Actual Average (KMFE) Record (KMFE)
Temperature  
Mean Temperature 56 °F -  
Max Temperature 64 °F 69 °F 89 °F (2015)
Min Temperature 47 °F 47 °F 30 °F (2004)
Degree Days  
Heating Degree Days 8    
Growing Degree Days 6 (Base 50)    
Moisture  
Dew Point 39 °F    
Average Humidity 61    
Maximum Humidity 83    
Minimum Humidity 32    
Precipitation  
Precipitation 0.00 in - - ()
Sea Level Pressure  
Sea Level Pressure 30.27 in    
Wind  
Wind Speed - (North)    
Max Wind Speed -    
Max Gust Speed -    
Visibility 10 miles    
Events      
Averages and records for this station are not official NWS values.
T = Trace of Precipitation, MM = Missing Value Source: NWS Daily Summary

Daily Weather History Graph

Daily Weather History Graph

Search for Another Location

Airport or City:

Trip Planner

Search our weather history database for the weather conditions in past years. The results will help you decide how hot, cold, wet, or windy it might be!

Date:

Astronomy

Dec. 26, 2011 Rise Set
Actual Time 7:18 AM CST 5:47 PM CST
Civil Twilight 6:53 AM CST 6:13 PM CST
Nautical Twilight 6:24 AM CST 6:41 PM CST
Astronomical Twilight 5:55 AM CST 7:10 PM CST
Moon 8:48 AM CST (12/26) 8:05 PM CST (12/26)
Length of Visible Light 11h 20m
Length of Day
10h 29m
Waxing Crescent, 5% of the Moon is Illuminated
Dec 26
Waxing Crescent
Jan 1
First Quarter
Jan 9
Full
Jan 16
Last Quarter
Jan 23
New

Hourly Weather History & Observations

Time (CST) Temp. Dew Point Humidity Pressure Visibility Wind Dir Wind Speed Gust Speed Precip Events Conditions
12:15 AM 49.1 °F 44.1 °F 83% 30.35 in 10.0 mi North - - N/A   Scattered Clouds
12:35 AM 49.1 °F 44.2 °F 83% 30.35 in 10.0 mi North - - N/A   Overcast
12:55 AM 49.3 °F 44.2 °F 83% 30.35 in 10.0 mi North - - N/A   Overcast
1:15 AM 49.8 °F 43.3 °F 78% 30.34 in 10.0 mi North - - N/A   Overcast
1:35 AM 50.0 °F 42.8 °F 76% 30.33 in 10.0 mi North - - N/A   Overcast
1:55 AM 50.0 °F 42.8 °F 76% 30.33 in 10.0 mi North - - N/A   Overcast
2:15 AM 50.0 °F 42.8 °F 76% 30.33 in 10.0 mi North - - N/A   Overcast
2:55 AM 50.4 °F 42.8 °F 75% 30.31 in 10.0 mi North - - N/A   Overcast
3:15 AM 50.2 °F 42.4 °F 75% 30.31 in 10.0 mi North - - N/A   Overcast
3:35 AM 50.2 °F 42.4 °F 75% 30.30 in 10.0 mi North - - N/A   Overcast
3:55 AM 50.0 °F 42.3 °F 75% 30.31 in 10.0 mi North - - N/A   Overcast
4:15 AM 50.0 °F 41.9 °F 74% 30.31 in 10.0 mi North - - N/A   Overcast
4:35 AM 49.8 °F 41.9 °F 74% 30.31 in 10.0 mi North - - N/A   Overcast
4:55 AM 49.6 °F 41.9 °F 75% 30.30 in 10.0 mi North - - N/A   Overcast
5:15 AM 49.5 °F 41.5 °F 74% 30.30 in 10.0 mi North - - N/A   Overcast
5:35 AM 49.5 °F 41.2 °F 73% 30.31 in 10.0 mi North - - N/A   Overcast
5:55 AM 49.5 °F 41.0 °F 73% 30.31 in 10.0 mi North - - N/A   Overcast
6:15 AM 49.5 °F 41.0 °F 73% 30.32 in 10.0 mi North - - N/A   Overcast
6:55 AM 49.1 °F 41.0 °F 74% 30.31 in 10.0 mi North - - N/A   Overcast
7:15 AM 49.1 °F 41.0 °F 74% 30.33 in 10.0 mi North - - N/A   Overcast
7:35 AM 49.1 °F 41.0 °F 74% 30.33 in 10.0 mi North - - N/A   Overcast
7:55 AM 49.1 °F 40.8 °F 73% 30.33 in 10.0 mi North - - N/A   Overcast
8:15 AM 49.1 °F 40.8 °F 73% 30.33 in 10.0 mi North - - N/A   Overcast
8:35 AM 49.1 °F 40.5 °F 72% 30.33 in 10.0 mi North - - N/A   Overcast
8:55 AM 49.1 °F 40.5 °F 72% 30.34 in 10.0 mi North - - N/A   Overcast
9:15 AM 49.3 °F 40.5 °F 72% 30.33 in 10.0 mi North - - N/A   Overcast
9:55 AM 50.2 °F 40.3 °F 69% 30.33 in 10.0 mi North - - N/A   Scattered Clouds
10:15 AM 50.9 °F 39.9 °F 66% 30.33 in 10.0 mi North - - N/A   Clear
10:35 AM 51.1 °F 39.7 °F 65% 30.33 in 10.0 mi North - - N/A   Scattered Clouds
10:55 AM 51.3 °F 39.6 °F 64% 30.32 in 10.0 mi North - - N/A   Scattered Clouds
11:15 AM 51.8 °F 39.2 °F 62% 30.31 in 10.0 mi North - - N/A   Scattered Clouds
11:35 AM 52.0 °F 39.4 °F 62% 30.31 in 10.0 mi North - - N/A   Clear
12:15 PM 52.9 °F 39.7 °F 61% 30.28 in 10.0 mi North - - N/A   Clear
12:35 PM 54.0 °F 39.9 °F 59% 30.27 in 10.0 mi North - - N/A   Clear
12:55 PM 56.8 °F 39.7 °F 53% 30.24 in 10.0 mi North - - N/A   Clear
1:15 PM 57.9 °F 38.7 °F 49% 30.23 in 10.0 mi North - - N/A   Clear
1:55 PM 59.9 °F 35.1 °F 39% 30.20 in 10.0 mi North - - N/A   Clear
2:15 PM 60.4 °F 35.1 °F 39% 30.19 in 10.0 mi North - - N/A   Clear
2:35 PM 61.3 °F 34.5 °F 37% 30.18 in 10.0 mi North - - N/A   Clear
2:55 PM 61.9 °F 34.3 °F 36% 30.18 in 10.0 mi North - - N/A   Clear
3:15 PM 62.6 °F 34.5 °F 35% 30.17 in 10.0 mi North - - N/A   Clear
3:35 PM 63.3 °F 34.3 °F 34% 30.16 in 10.0 mi North - - N/A   Clear
3:55 PM 63.9 °F 34.5 °F 34% 30.16 in 10.0 mi North - - N/A   Clear
4:15 PM 63.9 °F 34.7 °F 34% 30.16 in 10.0 mi North - - N/A   Clear
4:35 PM 64.2 °F 34.2 °F 33% 30.16 in 10.0 mi North - - N/A   Clear
4:55 PM 64.2 °F 33.6 °F 32% 30.16 in 10.0 mi North - - N/A   Clear
5:15 PM 63.5 °F 33.4 °F 33% 30.16 in 10.0 mi North - - N/A   Clear
5:35 PM 62.2 °F 34.5 °F 36% 30.17 in 10.0 mi North - - N/A   Clear
5:55 PM 60.8 °F 35.8 °F 39% 30.17 in 10.0 mi North - - N/A   Clear
6:15 PM 60.1 °F 35.6 °F 40% 30.17 in 10.0 mi North - - N/A   Clear
6:55 PM 54.9 °F 37.6 °F 52% 30.18 in 10.0 mi North - - N/A   Clear
7:15 PM 52.7 °F 37.9 °F 57% 30.19 in 10.0 mi North - - N/A   Clear
7:35 PM 52.3 °F 38.7 °F 60% 30.19 in 10.0 mi North - - N/A   Clear
7:55 PM 49.6 °F 37.9 °F 64% 30.20 in 10.0 mi North - - N/A   Clear
8:15 PM 49.1 °F 38.1 °F 66% 30.20 in 10.0 mi North - - N/A   Clear
8:35 PM 49.3 °F 38.1 °F 65% 30.21 in 10.0 mi North - - N/A   Clear
8:55 PM 47.8 °F 38.8 °F 71% 30.21 in 10.0 mi North - - N/A   Clear
9:15 PM 47.7 °F 39.6 °F 73% 30.21 in 10.0 mi North - - N/A   Clear
9:35 PM 46.8 °F 39.9 °F 77% 30.22 in 10.0 mi North - - N/A   Clear
9:55 PM 47.8 °F 40.8 °F 77% 30.22 in 10.0 mi North - - N/A   Clear
10:15 PM 48.2 °F 41.0 °F 76% 30.23 in 10.0 mi North - - N/A   Clear
10:35 PM 47.8 °F 41.2 °F 78% 30.22 in 10.0 mi North - - N/A   Clear
10:55 PM 47.7 °F 41.0 °F 78% 30.22 in 10.0 mi North - - N/A   Clear
11:15 PM 46.0 °F 40.5 °F 81% 30.22 in 10.0 mi North - - N/A   Clear
11:35 PM 45.7 °F 40.5 °F 82% 30.22 in 10.0 mi North - - N/A   Clear
11:55 PM 45.5 °F 40.3 °F 82% 30.22 in 7.0 mi North - - N/A   Clear